CW0736 Weather Reports


time (UTC)temp
F
wind
direction
speed
knots
gust
knots
rain 1hr
in
rain 24hr
in
rain mn
in
humidity
%
barometer
mb
20260509123041 50 210 0.9 3.5 0.00 0.01 0.00 80 1009.1
20260509121537 50 198 1.7 4.3 0.00 0.01 0.00 80 1009.2
20260509120017 48 205 1.7 4.3 0.00 0.01 0.00 79 1009.2
20260509114518 47 209 1.7 2.6 0.00 0.01 0.00 78 1009.3
20260509113043 47 175 0.9 4.3 0.00 0.01 0.00 77 1009.4
20260509111525 46 208 0.9 2.6 0.00 0.01 0.00 76 1009.4
20260509110017 46 202 0.9 3.5 0.00 0.01 0.00 75 1009.5
20260509104518 46 194 0.9 3.5 0.00 0.01 0.00 74 1009.3
20260509103007 45 193 1.7 4.3 0.00 0.01 0.00 73 1009.2
20260509101604 45 200 0.9 2.6 0.00 0.01 0.00 72 1009.1
20260509100034 45 186 1.7 2.6 0.00 0.01 0.00 71 1009.1
20260509094526 45 198 1.7 3.5 0.00 0.01 0.00 70 1009.1
20260509093049 45 198 0.9 4.3 0.00 0.01 0.00 69 1009.1
20260509091553 45 199 1.7 3.5 0.00 0.01 0.00 68 1009.2
20260509090056 45 199 1.7 4.3 0.00 0.01 0.00 67 1009.2
20260509084600 44 194 1.7 3.5 0.00 0.01 0.00 67 1009.4
20260509083116 44 196 1.7 3.5 0.00 0.01 0.00 67 1009.4
20260509081554 44 199 1.7 3.5 0.00 0.01 0.00 68 1009.5
20260509080059 44 196 0.9 3.5 0.00 0.01 0.00 68 1009.6
20260509074610 44 199 1.7 2.6 0.00 0.01 0.00 67 1009.7
20260509073102 44 196 1.7 2.6 0.00 0.01 0.00 65 1009.8
20260509071508 44 192 0.9 4.3 0.00 0.01 0.00 65 1010.0
20260509070007 43 196 1.7 2.6 0.00 0.01 0.00 66 1010.1
20260509064508 43 196 0.9 2.6 0.00 0.01 0.00 67 1010.2
20260509063024 43 202 1.7 3.5 0.00 0.01 0.00 67 1010.4
20260509061507 44 192 1.7 2.6 0.00 0.01 0.00 66 1010.6
20260509060013 44 184 0.9 2.6 0.00 0.02 0.00 67 1010.7
20260509054537 44 182 0.9 2.6 0.00 0.02 0.00 68 1011.0
20260509053016 44 180 0.9 1.7 0.00 0.02 0.00 69 1011.1
20260509051538 44 180 0.9 2.6 0.00 0.02 0.00 69 1011.4
20260509050026 44 180 0.9 1.7 0.00 0.02 0.00 71 1011.5
20260509044514 44 180 0.9 1.7 0.00 0.02 0.00 71 1011.7
20260509043033 45 180 0.9 2.6 0.00 0.02 0.00 71 1011.8
20260509041530 45 180 0.9 2.6 0.00 0.02 0.00 72 1011.9
20260509040020 44 172 0.9 2.6 0.00 0.03 0.02 76 1011.9
20260509034511 42 157 0.9 1.7 0.00 0.03 0.02 82 1012.0
20260509033011 41 45 0.0 0.9 0.00 0.03 0.02 83 1012.0
20260509031514 41 45 0.0 0.9 0.00 0.03 0.02 83 1012.0
20260509030011 42 45 0.0 0.0 0.00 0.06 0.02 82 1012.1
20260509024530 42 45 0.0 0.0 0.00 0.06 0.02 81 1012.2
20260509023047 42 45 0.0 0.0 0.00 0.06 0.02 81 1012.1
20260509021544 43 45 0.0 0.0 0.00 0.06 0.02 79 1012.0
20260509020015 44 45 0.0 0.0 0.00 0.07 0.02 78 1012.1
20260509014528 45 45 0.0 0.0 0.00 0.07 0.02 76 1012.1
20260509013024 46 45 0.0 0.0 0.00 0.07 0.02 75 1012.1
20260509011545 47 45 0.0 0.0 0.00 0.07 0.02 73 1012.1
20260509010033 48 45 0.0 0.0 0.00 0.07 0.02 70 1012.0
20260509004523 49 45 0.0 0.0 0.00 0.07 0.02 67 1011.8
20260509003025 50 45 0.0 0.0 0.00 0.07 0.02 65 1011.4
20260509001520 51 173 0.0 1.7 0.00 0.07 0.02 63 1011.4
20260509000024 52 11 0.0 1.7 0.00 0.07 0.02 58 1011.3
20260508234545 53 5 0.0 0.9 0.00 0.07 0.02 56 1011.3
20260508233108 53 5 0.0 1.7 0.00 0.07 0.02 55 1011.3
20260508231556 54 5 0.0 0.9 0.00 0.07 0.02 58 1011.2
20260508230059 53 13 0.0 0.9 0.00 0.07 0.02 52 1011.3
20260508224520 54 9 0.0 0.9 0.00 0.07 0.02 52 1011.3
20260508223033 54 9 0.0 1.7 0.00 0.07 0.02 50 1011.3
20260508221533 54 19 0.0 2.6 0.00 0.07 0.02 48 1011.3
20260508220022 54 101 0.0 2.6 0.00 0.07 0.02 49 1011.4
20260508214525 54 190 0.0 1.7 0.00 0.07 0.02 49 1011.4
20260508213022 54 143 0.0 2.6 0.00 0.07 0.02 50 1011.5
20260508211517 54 5 0.0 1.7 0.00 0.07 0.02 54 1011.6
20260508210040 55 260 1.7 4.3 0.00 0.07 0.02 52 1011.7
20260508204542 55 186 0.9 4.3 0.00 0.07 0.02 55 1011.7
20260508203040 55 34 0.9 2.6 0.00 0.07 0.02 54 1011.7
20260508201600 55 258 0.9 1.7 0.00 0.07 0.02 56 1012.0
20260508201502 55 258 0.9 1.7 0.00 0.07 0.02 54 1012.0
20260508200007 54 30 2.6 7.0 0.00 0.07 0.02 60 1012.2
20260508194606 54 233 0.9 3.5 0.00 0.07 0.02 64 1012.4
20260508193120 53 343 0.9 2.6 0.00 0.07 0.02 53 1012.5
20260508193001 53 261 0.0 2.6 0.00 0.07 0.02 51 1012.5
20260508191547 54 30 0.9 5.2 0.00 0.07 0.02 56 1012.6
20260508190010 54 263 0.9 3.5 0.00 0.07 0.02 50 1012.7
20260508184514 55 277 0.9 3.5 0.00 0.07 0.02 49 1012.8
20260508183100 54 331 0.9 4.3 0.00 0.07 0.02 55 1012.7
20260508181554 55 259 0.9 6.1 0.00 0.07 0.02 50 1012.9
20260508180106 55 263 0.9 3.5 0.00 0.07 0.02 54 1013.0
20260508180002 55 257 0.9 3.5 0.00 0.07 0.02 56 1013.0
20260508174522 54 264 0.0 5.2 0.00 0.07 0.02 57 1013.0
20260508173025 53 259 0.0 2.6 0.00 0.07 0.02 62 1013.1
20260508171548 52 263 0.9 5.2 0.00 0.07 0.02 63 1013.2
20260508170033 51 245 0.9 6.1 0.00 0.07 0.02 69 1013.5
20260508164536 50 294 1.7 4.3 0.00 0.07 0.02 67 1013.6
20260508163103 49 279 0.9 5.2 0.00 0.07 0.02 68 1013.7
20260508161532 49 271 0.9 2.6 0.00 0.07 0.02 68 1013.9
20260508160021 49 268 0.9 3.5 0.00 0.07 0.02 69 1014.0
20260508154522 48 259 0.9 3.5 0.00 0.07 0.02 69 1014.2
20260508153038 47 235 0.0 3.5 0.00 0.07 0.02 78 1014.0
20260508151511 46 243 0.9 3.5 0.00 0.07 0.02 80 1014.0
20260508150035 46 265 1.7 3.5 0.00 0.07 0.02 81 1014.1
20260508144537 45 254 0.9 2.6 0.01 0.07 0.02 85 1014.1
20260508143101 44 271 1.7 5.2 0.01 0.07 0.02 85 1014.0
20260508141540 43 249 0.0 4.3 0.01 0.07 0.02 85 1013.9
20260508140037 44 253 0.9 3.5 0.01 0.07 0.02 88 1013.7
20260508134539 43 209 1.7 2.6 0.00 0.06 0.01 89 1013.8
20260508133027 41 34 0.0 3.5 0.00 0.06 0.01 89 1014.1
20260508131511 42 267 0.0 1.7 0.00 0.06 0.01 89 1014.2
20260508130039 41 246 0.0 2.6 0.00 0.06 0.01 89 1014.0
20260508124529 41 234 0.9 3.5 0.00 0.06 0.01 89 1014.0